Precipitable_Water
0.27 0.27 0.26 0.26 0.26 0.27 0.27 0.26 0.27 0.27 0.27 0.28 0.27 0.27 0.26 0.27 0.28 0.28 0.28 0.28 0.28 0.28 0.29 0.31 0.33 0.36 0.41 0.45 0.48 0.49 0.50 0.51 0.51 0.52 0.51 0.51 0.51 0.51 0.51 0.52 0.52 0.53
0.24 0.23 0.23 0.22 0.23 0.23 0.24 0.25 0.24 0.25 0.24 0.25 0.25 0.26 0.26 0.25 0.24 0.24 0.24 0.24 0.25 0.25 0.25 0.25 0.26 0.27 0.29 0.32 0.35 0.38 0.41 0.45 0.47 0.51 0.51 0.50 0.51 0.51 0.51 0.51 0.51 0.52
0.21 0.21 0.21 0.21 0.21 0.21 0.21 0.21 0.21 0.21 0.21 0.21 0.21 0.22 0.22 0.23 0.23 0.23 0.23 0.23 0.22 0.22 0.22 0.23 0.23 0.23 0.24 0.25 0.27 0.28 0.30 0.32 0.35 0.40 0.44 0.47 0.50 0.50 0.50 0.51 0.50 0.50
0.21 0.21 0.20 0.20 0.20 0.20 0.20 0.19 0.20 0.20 0.19 0.18 0.18 0.19 0.19 0.19 0.19 0.19 0.20 0.20 0.20 0.20 0.20 0.20 0.20 0.20 0.21 0.21 0.22 0.22 0.24 0.25 0.27 0.30 0.32 0.34 0.38 0.44 0.48 0.50 0.50 0.50
0.20 0.19 0.19 0.18 0.18 0.18 0.18 0.17 0.17 0.17 0.17 0.17 0.17 0.16 0.16 0.16 0.16 0.16 0.16 0.16 0.17 0.17 0.18 0.18 0.18 0.18 0.18 0.18 0.19 0.18 0.19 0.20 0.22 0.24 0.25 0.26 0.28 0.31 0.35 0.39 0.44 0.47
0.17 0.17 0.16 0.16 0.16 0.16 0.15 0.15 0.15 0.15 0.14 0.13 0.13 0.13 0.13 0.13 0.13 0.13 0.14 0.14 0.14 0.14 0.15 0.15 0.15 0.16 0.16 0.16 0.16 0.17 0.17 0.17 0.18 0.19 0.20 0.21 0.22 0.24 0.26 0.28 0.31 0.35
0.15 0.15 0.15 0.15 0.14 0.14 0.14 0.14 0.15 0.14 0.13 0.14 0.13 0.13 0.13 0.12 0.12 0.11 0.11 0.11 0.12 0.12 0.13 0.13 0.13 0.13 0.14 0.14 0.14 0.14 0.14 0.15 0.15 0.16 0.17 0.18 0.19 0.20 0.21 0.23 0.24 0.27
0.16 0.16 0.15 0.15 0.14 0.14 0.13 0.13 0.13 0.13 0.13 0.13 0.12 0.12 0.13 0.12 0.12 0.12 0.11 0.11 0.11 0.10 0.10 0.11 0.11 0.11 0.11 0.12 0.12 0.12 0.12 0.13 0.13 0.13 0.14 0.15 0.16 0.17 0.18 0.20 0.20 0.21
0.16 0.15 0.15 0.15 0.14 0.13 0.13 0.13 0.13 0.13 0.13 0.12 0.12 0.12 0.12 0.12 0.12 0.11 0.11 0.11 0.10 0.10 0.10 0.10 0.10 0.10 0.10 0.10 0.10 0.10 0.11 0.11 0.12 0.12 0.12 0.12 0.13 0.14 0.15 0.17 0.18 0.19
0.16 0.16 0.15 0.15 0.14 0.14 0.13 0.13 0.13 0.13 0.13 0.12 0.12 0.12 0.11 0.12 0.12 0.11 0.11 0.10 0.10 0.10 0.10 0.09 0.09 0.09 0.09 0.09 0.09 0.09 0.09 0.10 0.11 0.11 0.11 0.12 0.12 0.13 0.13 0.13 0.14 0.15
0.16 0.16 0.15 0.15 0.14 0.14 0.13 0.13 0.13 0.13 0.13 0.13 0.13 0.12 0.12 0.11 0.11 0.11 0.10 0.10 0.10 0.09 0.09 0.09 0.09 0.09 0.09 0.09 0.09 0.09 0.09 0.09 0.10 0.10 0.11 0.11 0.11 0.12 0.12 0.13 0.13 0.13
0.16 0.15 0.15 0.14 0.14 0.13 0.13 0.13 0.12 0.12 0.12 0.12 0.12 0.11 0.11 0.11 0.10 0.10 0.10 0.10 0.10 0.10 0.10 0.10 0.09 0.09 0.09 0.09 0.09 0.09 0.09 0.09 0.09 0.10 0.10 0.11 0.11 0.11 0.12 0.12 0.12 0.12
0.16 0.16 0.15 0.15 0.14 0.13 0.13 0.13 0.12 0.12 0.12 0.11 0.12 0.11 0.10 0.10 0.10 0.10 0.10 0.10 0.10 0.10 0.10 0.10 0.10 0.09 0.09 0.09 0.09 0.09 0.09 0.09 0.09 0.09 0.10 0.10 0.11 0.11 0.12 0.12 0.12 0.12
0.17 0.17 0.17 0.16 0.15 0.14 0.13 0.13 0.12 0.12 0.12 0.12 0.11 0.11 0.10 0.10 0.10 0.09 0.09 0.10 0.10 0.10 0.10 0.10 0.10 0.09 0.09 0.10 0.10 0.10 0.11 0.11 0.11 0.11 0.11 0.11 0.11 0.11 0.12 0.12 0.12 0.13
0.18 0.18 0.18 0.17 0.15 0.14 0.13 0.13 0.12 0.12 0.12 0.11 0.11 0.11 0.10 0.10 0.10 0.10 0.10 0.10 0.10 0.10 0.10 0.10 0.10 0.10 0.10 0.10 0.11 0.12 0.13 0.14 0.14 0.14 0.14 0.14 0.13 0.13 0.12 0.12 0.12 0.12
0.19 0.19 0.18 0.17 0.15 0.14 0.13 0.13 0.12 0.12 0.11 0.11 0.10 0.10 0.10 0.10 0.10 0.10 0.10 0.10 0.10 0.10 0.10 0.10 0.10 0.10 0.11 0.12 0.13 0.14 0.15 0.15 0.15 0.15 0.15 0.15 0.14 0.14 0.14 0.14 0.13 0.13
0.19 0.19 0.18 0.16 0.15 0.14 0.13 0.13 0.12 0.12 0.11 0.10 0.10 0.10 0.10 0.10 0.10 0.10 0.10 0.10 0.10 0.10 0.10 0.10 0.11 0.11 0.12 0.13 0.14 0.15 0.16 0.16 0.15 0.15 0.15 0.15 0.15 0.15 0.14 0.14 0.14 0.15
0.19 0.18 0.17 0.16 0.15 0.14 0.13 0.13 0.12 0.11 0.10 0.10 0.10 0.09 0.10 0.10 0.10 0.10 0.10 0.10 0.11 0.11 0.10 0.10 0.10 0.11 0.13 0.13 0.14 0.15 0.16 0.16 0.16 0.15 0.15 0.15 0.14 0.14 0.14 0.14 0.14 0.15
0.19 0.18 0.17 0.16 0.15 0.14 0.13 0.12 0.11 0.10 0.10 0.10 0.09 0.10 0.10 0.10 0.10 0.10 0.10 0.10 0.11 0.10 0.10 0.10 0.10 0.11 0.13 0.13 0.14 0.15 0.16 0.16 0.16 0.15 0.14 0.14 0.14 0.14 0.14 0.14 0.14 0.14
0.19 0.18 0.16 0.15 0.14 0.13 0.12 0.11 0.10 0.10 0.10 0.10 0.10 0.10 0.10 0.10 0.10 0.10 0.10 0.10 0.10 0.11 0.10 0.10 0.10 0.11 0.12 0.13 0.14 0.14 0.14 0.14 0.14 0.14 0.14 0.14 0.14 0.14 0.14 0.14 0.14 0.14
0.18 0.17 0.16 0.15 0.13 0.12 0.11 0.11 0.10 0.10 0.10 0.10 0.10 0.10 0.10 0.09 0.09 0.10 0.10 0.10 0.11 0.11 0.10 0.10 0.10 0.11 0.12 0.12 0.13 0.13 0.13 0.13 0.13 0.13 0.13 0.12 0.13 0.13 0.13 0.13 0.13 0.13
0.18 0.17 0.15 0.14 0.13 0.12 0.11 0.10 0.10 0.10 0.10 0.10 0.10 0.10 0.10 0.10 0.10 0.10 0.10 0.10 0.10 0.10 0.10 0.09 0.10 0.11 0.11 0.12 0.12 0.12 0.13 0.13 0.12 0.12 0.12 0.13 0.13 0.13 0.13 0.13 0.13 0.13
0.17 0.16 0.14 0.13 0.12 0.11 0.11 0.10 0.10 0.10 0.10 0.10 0.10 0.10 0.10 0.10 0.10 0.10 0.10 0.10 0.10 0.10 0.09 0.09 0.09 0.10 0.11 0.11 0.11 0.12 0.12 0.12 0.13 0.13 0.14 0.14 0.14 0.14 0.14 0.14 0.14 0.14
0.16 0.15 0.14 0.13 0.12 0.11 0.11 0.10 0.10 0.10 0.10 0.10 0.10 0.10 0.10 0.10 0.10 0.10 0.10 0.10 0.10 0.09 0.09 0.09 0.10 0.10 0.11 0.11 0.11 0.12 0.13 0.14 0.15 0.15 0.15 0.15 0.15 0.15 0.15 0.15 0.15 0.15
0.16 0.15 0.14 0.13 0.12 0.11 0.11 0.10 0.10 0.10 0.10 0.11 0.10 0.10 0.10 0.10 0.10 0.10 0.10 0.10 0.09 0.09 0.10 0.10 0.10 0.10 0.10 0.10 0.11 0.12 0.14 0.16 0.16 0.16 0.15 0.15 0.15 0.14 0.14 0.14 0.15 0.16
0.16 0.15 0.14 0.13 0.12 0.11 0.11 0.11 0.11 0.11 0.11 0.10 0.10 0.10 0.10 0.10 0.10 0.10 0.09 0.09 0.09 0.09 0.10 0.10 0.09 0.09 0.09 0.10 0.12 0.14 0.16 0.17 0.16 0.15 0.14 0.14 0.13 0.13 0.12 0.12 0.12 0.12
Wind_Speed
32 33 33 34 34 35 35 35 35 35 36 36 36 37 37 37 38 38 38 39 39 39 39 40 40 40 41 41 41 42 42 42 43 43 44 44 45 45 45 45 45 46
35 35 36 36 37 37 38 38 38 38 38 38 38 38 39 39 40 40 40 40 40 41 41 41 41 42 42 42 43 43 43 44 44 44 45 45 46 46 47 47 47 47
37 38 38 38 39 39 39 40 40 40 40 40 40 41 41 41 42 42 42 42 42 42 42 43 43 43 44 44 44 45 45 45 45 46 46 46 47 47 48 48 48 49
40 40 40 40 41 41 41 41 42 42 42 43 43 43 43 43 43 43 43 44 44 44 44 44 45 45 45 46 46 46 47 47 47 47 48 48 48 48 48 49 49 49
43 43 42 42 42 43 43 43 44 44 44 45 45 45 45 45 45 45 45 46 46 46 46 46 46 47 47 47 48 48 48 49 49 49 50 50 50 50 50 50 50 50
44 44 44 44 44 44 44 45 45 45 45 46 46 47 47 47 47 48 48 48 48 48 48 48 48 49 49 49 49 50 50 51 51 51 52 52 52 52 52 52 52 52
43 44 44 44 45 45 46 46 46 47 47 47 47 48 48 48 49 49 49 49 49 50 50 50 51 51 51 51 51 52 53 53 53 54 54 54 54 54 54 54 54 54
44 44 45 45 46 46 46 47 47 48 48 48 48 49 49 49 50 50 50 51 51 51 52 52 53 53 53 53 54 54 54 55 55 56 56 56 56 56 56 56 56 56
45 45 46 46 46 47 47 47 48 48 49 49 49 50 50 51 51 52 52 52 53 53 53 54 55 55 55 56 56 56 57 57 57 58 58 58 58 58 58 58 58 58
45 46 46 47 47 47 48 48 48 49 49 50 50 51 51 52 53 53 54 54 54 55 55 56 56 57 57 57 58 58 59 59 59 59 60 60 60 60 60 60 60 60
46 46 47 47 47 48 48 49 49 49 50 50 51 52 52 53 54 54 55 55 56 56 57 57 58 58 59 59 59 59 60 61 61 61 61 62 62 62 62 61 62 62
46 46 47 47 48 48 49 49 49 50 50 51 52 52 53 54 54 55 56 56 57 58 58 59 59 60 60 61 61 61 62 62 62 63 63 63 64 64 64 63 64 64
46 47 47 48 48 49 49 49 50 50 51 51 52 53 53 54 55 55 56 56 57 58 59 59 60 61 61 62 62 63 63 64 64 65 65 65 66 66 66 66 66 66
47 47 47 48 48 49 49 49 50 50 51 52 52 53 53 54 55 55 56 56 57 58 59 59 60 61 62 62 63 64 64 65 66 66 67 67 68 68 68 68 68 68
47 47 48 48 49 49 49 50 50 51 51 52 53 53 54 54 55 56 56 57 58 58 59 60 60 61 61 62 63 64 65 66 67 67 68 69 69 70 70 70 70 70
47 48 48 49 49 49 49 50 50 51 52 52 53 53 54 55 55 56 57 58 59 59 60 60 61 61 62 63 64 65 65 66 67 68 69 69 70 71 72 72 71 72
47 48 48 48 49 49 49 50 51 51 52 52 53 53 54 54 55 56 57 57 58 59 60 61 61 62 63 64 65 65 66 66 67 68 69 69 70 71 72 72 73 73
47 48 48 48 48 49 49 50 50 51 52 52 52 53 53 54 54 55 56 57 57 58 59 60 61 62 63 64 64 65 65 65 66 68 69 69 70 71 72 72 73 73
47 48 48 48 48 48 49 49 50 50 51 51 52 52 53 53 54 55 55 56 57 58 59 60 60 61 62 63 64 64 65 65 66 67 69 69 70 71 71 72 72 72
47 47 47 47 47 48 49 49 49 50 50 51 51 52 52 53 54 54 55 56 56 58 59 59 60 60 61 62 63 63 64 65 65 66 67 68 69 69 70 71 71 71
45 45 46 46 47 48 49 49 49 50 50 50 51 51 52 52 53 54 54 55 56 57 58 59 59 59 60 61 61 62 63 63 63 64 65 66 67 67 68 69 69 70
45 45 46 46 47 48 48 48 49 49 49 50 50 50 51 51 52 53 54 55 56 56 58 58 58 58 58 59 60 60 61 61 61 62 63 63 63 63 63 64 65 66
44 45 46 46 47 47 48 48 48 48 48 49 49 50 50 51 52 53 54 55 56 56 57 57 56 56 57 58 58 59 59 59 58 58 57 56 56 56 56 57 58 60
44 45 46 46 46 47 47 47 47 48 48 48 49 50 50 51 52 53 54 55 55 56 55 55 55 55 56 56 57 57 57 55 53 51 50 50 49 49 49 50 51 53
44 45 45 45 46 46 46 46 47 47 47 48 49 50 51 52 52 53 54 54 54 54 54 53 54 54 54 55 55 54 52 49 47 47 46 46 46 45 45 45 46 47
44 44 45 45 45 45 45 46 46 46 47 48 49 50 51 52 52 53 54 54 53 52 52 51 52 52 53 53 53 51 48 46 44 44 45 45 45 45 45 45 45 46
Wind_Direction
288 288 288 288 288 288 288 288 288 287 287 287 287 287 287 287 287 286 286 285 285 284 283 282 282 281 280 279 278 277 275 275 274 273 272 271 270 270 269 269 268 268
288 288 288 288 288 288 288 288 288 288 287 287 287 287 286 287 287 287 286 285 284 284 283 282 281 281 280 279 278 277 276 276 275 274 273 272 272 271 270 270 269 269
288 288 288 288 288 288 288 288 287 287 287 287 287 286 286 286 286 286 286 285 284 283 283 282 282 281 280 279 278 277 277 276 276 275 274 273 273 272 271 270 270 269
288 288 288 288 287 287 287 287 287 286 286 286 286 286 286 286 285 285 285 284 284 283 283 282 281 281 280 279 278 277 277 276 276 275 274 274 273 273 272 272 271 270
287 288 288 288 288 287 287 287 286 286 286 285 285 285 285 285 284 284 284 283 283 282 282 281 281 280 279 279 278 277 277 276 276 275 275 274 274 273 273 272 272 271
287 288 288 288 288 287 287 287 286 286 285 285 285 284 284 284 284 283 283 283 282 282 281 281 281 280 279 278 278 277 277 276 275 275 274 274 273 273 273 272 272 272
287 287 287 287 287 287 287 286 286 286 286 285 285 285 284 284 283 283 283 282 282 281 281 281 281 280 280 279 278 277 277 276 276 275 274 273 273 273 272 272 271 271
287 287 287 287 287 287 287 286 286 286 286 286 285 285 285 285 284 284 283 283 282 282 281 281 280 280 280 279 279 278 277 276 276 275 274 274 273 272 272 271 270 270
288 288 288 288 288 287 287 287 287 286 286 286 286 285 285 285 285 284 284 283 283 282 282 281 281 280 280 280 279 279 278 277 276 275 274 273 273 272 271 271 270 269
288 288 288 288 288 288 287 287 287 287 287 286 286 286 286 286 286 285 284 284 283 283 283 282 282 281 280 280 279 279 278 277 276 275 274 273 272 271 271 270 269 269
288 288 289 289 289 288 288 288 287 287 287 287 287 286 286 286 286 286 285 285 284 284 283 283 282 281 281 280 279 278 277 276 276 275 274 273 272 271 270 270 269 268
288 289 289 289 289 289 289 288 288 288 288 288 287 287 287 287 286 286 286 285 285 284 284 283 283 282 281 280 279 278 277 276 275 274 273 272 272 271 270 269 269 268
288 289 289 289 289 289 289 289 289 289 288 288 288 288 287 287 287 287 286 286 285 285 284 284 283 283 282 281 280 279 278 277 276 275 274 272 271 271 270 269 269 268
289 289 290 290 290 290 289 289 289 289 289 288 288 288 288 288 288 287 287 286 286 285 285 284 284 283 283 282 281 280 279 278 277 276 275 273 272 271 270 269 269 268
290 290 290 291 290 290 289 289 289 289 289 289 289 289 289 289 289 288 288 288 287 286 286 285 285 284 284 283 282 281 280 279 278 276 275 274 273 272 271 270 269 268
290 290 290 291 290 290 289 290 290 290 290 290 290 290 290 290 289 289 289 288 288 287 287 286 286 285 285 284 284 282 281 280 278 277 276 275 274 273 271 270 269 268
290 290 291 291 291 290 290 291 291 291 291 291 291 291 291 291 291 290 290 290 289 288 288 287 287 287 287 286 285 284 282 281 279 278 277 275 274 273 272 271 270 269
290 291 291 291 291 291 291 292 292 292 292 292 292 292 292 291 291 291 291 291 290 290 289 289 288 288 288 287 286 285 283 282 280 279 278 276 275 274 273 272 271 270
290 291 291 291 291 292 292 292 292 292 292 292 292 292 292 292 292 292 292 292 291 291 291 291 291 291 290 288 287 286 284 283 281 280 279 277 276 275 274 272 271 270
291 291 291 291 292 292 292 293 293 293 293 292 292 293 293 293 293 293 293 293 293 293 293 293 293 292 291 289 288 287 286 284 282 281 279 278 277 276 275 273 272 271
292 292 292 292 292 293 293 293 293 293 293 293 293 293 293 293 294 294 294 294 294 294 295 294 294 293 292 291 290 289 288 286 284 282 281 280 278 277 276 274 273 272
292 292 292 292 293 293 293 293 293 294 294 294 294 294 294 294 295 295 295 296 296 296 296 295 294 294 293 292 291 290 289 288 286 285 283 282 280 279 277 276 274 273
292 292 293 293 294 294 294 294 294 294 295 295 295 295 295 296 296 296 297 297 298 298 297 296 295 295 294 293 293 292 291 289 288 286 285 283 282 281 279 277 276 274
293 293 294 294 295 295 295 295 295 296 296 296 296 296 296 297 297 298 298 299 299 299 298 297 296 296 296 295 294 294 293 291 288 286 285 284 284 282 281 280 278 277
294 295 295 295 296 296 296 296 296 297 297 297 297 297 298 298 299 299 300 300 300 299 299 298 298 297 297 296 296 295 293 290 288 286 286 285 284 284 283 282 281 280
295 296 296 296 296 296 297 297 297 298 298 298 298 298 299 299 300 301 301 301 301 300 300 299 299 299 298 298 298 296 293 290 288 287 286 285 285 284 284 283 283 281